• In Hungary
  • List of Countries
  • For 7 days
  • Water Temperature
  • Satellite Maps
  • Weather Map
  • News
  • Weather Widgets
  • user-avatar
    Login

    Hourly Weather Kurunegala

    Today, 22 May, Tuesday

    Time Temperature Precipitation Wind Pressure Humidity
    00:00 +25°C° 0.1 mm 2 mps 743 mmHg 92%
    01:00 +25°C° 0.1 mm 2 mps 743 mmHg 91%
    02:00 +25°C° 0.1 mm 2 mps 743 mmHg 91%
    03:00 +25°C° 0.8 mm 2 mps 743 mmHg 92%
    04:00 +25°C° 0.8 mm 1 mps 743 mmHg 93%
    05:00 +25°C° 0 mm 1 mps 743 mmHg 93%
    06:00 +26°C° 1.1 mm 1 mps 743 mmHg 90%
    07:00 +28°C° 1.1 mm 2 mps 744 mmHg 86%
    08:00 +29°C° 1.1 mm 2 mps 744 mmHg 82%
    09:00 +30°C° 1.1 mm 2 mps 744 mmHg 80%
    10:00 +31°C° 1.1 mm 3 mps 744 mmHg 77%
    11:00 +33°C° 0 mm 3 mps 744 mmHg 74%
    12:00 +33°C° 0.3 mm 3 mps 743 mmHg 73%
    13:00 +33°C° 0.3 mm 3 mps 743 mmHg 71%
    14:00 +33°C° 0.3 mm 3 mps 743 mmHg 70%
    15:00 +31°C° 0.4 mm 3 mps 743 mmHg 74%
    16:00 +30°C° 0.4 mm 2 mps 743 mmHg 78%
    17:00 +30°C° 0.4 mm 2 mps 743 mmHg 83%
    18:00 +29°C° 0.8 mm 2 mps 743 mmHg 86%
    19:00 +28°C° 0.8 mm 1 mps 743 mmHg 89%
    20:00 +27°C° 0.8 mm 1 mps 744 mmHg 92%
    21:00 +27°C° 0.8 mm 1 mps 744 mmHg 92%
    22:00 +27°C° 0.8 mm 2 mps 744 mmHg 91%
    23:00 +26°C° 0.8 mm 2 mps 744 mmHg 91%

    Tomorrow, 23 May, Wednesday

    Time Temperature Precipitation Wind Pressure Humidity
    00:00 +26°C° 0.9 mm 2 mps 743 mmHg 90%
    01:00 +26°C° 0.9 mm 2 mps 743 mmHg 90%
    02:00 +26°C° 0.9 mm 2 mps 742 mmHg 90%
    03:00 +26°C° 1 mm 2 mps 742 mmHg 90%
    04:00 +26°C° 1 mm 2 mps 742 mmHg 90%
    05:00 +26°C° 1 mm 2 mps 742 mmHg 90%
    06:00 +27°C° 1.5 mm 2 mps 743 mmHg 87%
    07:00 +28°C° 1.5 mm 2 mps 743 mmHg 83%
    08:00 +29°C° 1.5 mm 2 mps 744 mmHg 80%
    09:00 +30°C° 1 mm 3 mps 744 mmHg 76%
    10:00 +31°C° 1 mm 3 mps 744 mmHg 73%
    11:00 +33°C° 1 mm 3 mps 744 mmHg 70%
    12:00 +33°C° 0.6 mm 3 mps 743 mmHg 71%
    13:00 +33°C° 0.6 mm 3 mps 742 mmHg 72%
    14:00 +31°C° 0.6 mm 3 mps 742 mmHg 72%
    15:00 +31°C° 0.8 mm 3 mps 742 mmHg 76%
    16:00 +30°C° 0.8 mm 3 mps 742 mmHg 79%
    17:00 +29°C° 0.8 mm 2 mps 742 mmHg 83%
    18:00 +28°C° 0.5 mm 2 mps 742 mmHg 84%
    19:00 +28°C° 0.5 mm 2 mps 743 mmHg 86%
    20:00 +27°C° 0.5 mm 2 mps 743 mmHg 88%
    21:00 +27°C° 0.3 mm 2 mps 743 mmHg 88%
    22:00 +27°C° 0.3 mm 2 mps 743 mmHg 88%
    23:00 +27°C° 0.3 mm 2 mps 743 mmHg 88%

    Day after tomorrow, 24 May, Thursday

    Time Temperature Precipitation Wind Pressure Humidity
    00:00 +27°C° 0.1 mm 2 mps 742 mmHg 88%
    01:00 +27°C° 0.1 mm 2 mps 742 mmHg 89%
    02:00 +27°C° 0.1 mm 2 mps 742 mmHg 89%
    03:00 +26°C° 0.4 mm 2 mps 742 mmHg 89%
    04:00 +26°C° 0.4 mm 2 mps 742 mmHg 90%
    05:00 +26°C° 0.4 mm 2 mps 742 mmHg 90%
    06:00 +27°C° 2.3 mm 3 mps 742 mmHg 88%
    07:00 +27°C° 2.3 mm 3 mps 743 mmHg 86%
    08:00 +28°C° 2.3 mm 3 mps 744 mmHg 85%
    09:00 +28°C° 3.8 mm 3 mps 744 mmHg 86%
    10:00 +28°C° 3.8 mm 3 mps 744 mmHg 88%
    11:00 +27°C° 3.8 mm 3 mps 744 mmHg 89%
    12:00 +27°C° 2.5 mm 3 mps 743 mmHg 90%
    13:00 +27°C° 2.5 mm 3 mps 742 mmHg 90%
    14:00 +27°C° 2.5 mm 3 mps 742 mmHg 90%
    15:00 +27°C° 1 mm 2 mps 742 mmHg 91%
    16:00 +27°C° 1 mm 2 mps 742 mmHg 92%
    17:00 +27°C° 1 mm 2 mps 742 mmHg 92%
    18:00 +27°C° 0.6 mm 2 mps 742 mmHg 93%
    19:00 +27°C° 0.6 mm 2 mps 743 mmHg 93%
    20:00 +26°C° 0.6 mm 2 mps 743 mmHg 93%
    21:00 +26°C° 0.6 mm 2 mps 743 mmHg 93%
    22:00 +26°C° 0.6 mm 2 mps 743 mmHg 93%
    23:00 +26°C° 0.6 mm 2 mps 743 mmHg 93%

    25 May, Friday

    Time Temperature Precipitation Wind Pressure Humidity
    00:00 +26°C° 0.8 mm 2 mps 743 mmHg 93%
    01:00 +26°C° 0.8 mm 2 mps 742 mmHg 93%
    02:00 +26°C° 0.8 mm 2 mps 742 mmHg 94%
    03:00 +26°C° 0.9 mm 2 mps 742 mmHg 93%
    04:00 +26°C° 0.9 mm 2 mps 742 mmHg 93%
    05:00 +26°C° 0.9 mm 2 mps 742 mmHg 93%
    06:00 +26°C° 0.8 mm 3 mps 743 mmHg 92%
    07:00 +27°C° 0.8 mm 3 mps 743 mmHg 91%
    08:00 +27°C° 0.8 mm 3 mps 744 mmHg 89%
    09:00 +27°C° 0.8 mm 3 mps 744 mmHg 89%
    10:00 +28°C° 0.8 mm 3 mps 744 mmHg 89%
    11:00 +28°C° 0.8 mm 3 mps 744 mmHg 88%
    12:00 +28°C° 0.8 mm 3 mps 743 mmHg 87%
    13:00 +29°C° 0.8 mm 4 mps 743 mmHg 85%
    14:00 +29°C° 0.8 mm 4 mps 742 mmHg 84%
    15:00 +28°C° 0.6 mm 3 mps 742 mmHg 85%
    16:00 +28°C° 0.6 mm 3 mps 742 mmHg 86%
    17:00 +28°C° 0.6 mm 2 mps 742 mmHg 88%
    18:00 +27°C° 0.3 mm 2 mps 743 mmHg 89%
    19:00 +27°C° 0.3 mm 2 mps 743 mmHg 90%
    20:00 +26°C° 0.3 mm 2 mps 744 mmHg 92%
    21:00 +26°C° 0.3 mm 2 mps 744 mmHg 92%
    22:00 +26°C° 0.3 mm 2 mps 744 mmHg 92%
    23:00 +26°C° 0.3 mm 2 mps 744 mmHg 92%

    26 May, Saturday

    Time Temperature Precipitation Wind Pressure Humidity
    00:00 +26°C° 0.5 mm 2 mps 743 mmHg 92%
    01:00 +26°C° 0.5 mm 2 mps 743 mmHg 92%
    02:00 +26°C° 0.5 mm 2 mps 742 mmHg 93%
    03:00 +26°C° 0.9 mm 2 mps 742 mmHg 93%
    04:00 +26°C° 0.9 mm 2 mps 742 mmHg 93%
    05:00 +26°C° 0.9 mm 2 mps 742 mmHg 93%
    06:00 +27°C° 1.3 mm 3 mps 743 mmHg 90%
    07:00 +28°C° 1.3 mm 3 mps 743 mmHg 87%
    08:00 +29°C° 1.3 mm 4 mps 744 mmHg 84%
    09:00 +29°C° 1.5 mm 4 mps 744 mmHg 85%
    10:00 +29°C° 1.5 mm 4 mps 743 mmHg 85%
    11:00 +29°C° 1.5 mm 4 mps 743 mmHg 85%
    12:00 +29°C° 1 mm 4 mps 743 mmHg 84%
    13:00 +29°C° 1 mm 4 mps 742 mmHg 83%
    14:00 +30°C° 1 mm 4 mps 741 mmHg 82%
    15:00 +29°C° 0.5 mm 4 mps 741 mmHg 84%
    16:00 +28°C° 0.5 mm 4 mps 742 mmHg 86%
    17:00 +28°C° 0.5 mm 3 mps 742 mmHg 89%
    18:00 +27°C° 0.4 mm 3 mps 742 mmHg 89%
    19:00 +27°C° 0.4 mm 3 mps 743 mmHg 90%
    20:00 +27°C° 0.4 mm 3 mps 744 mmHg 91%
    21:00 +27°C° 0.5 mm 3 mps 744 mmHg 91%
    22:00 +27°C° 0.5 mm 3 mps 743 mmHg 91%
    23:00 +27°C° 0.5 mm 3 mps 743 mmHg 91%

    27 May, Sunday

    Time Temperature Precipitation Wind Pressure Humidity
    00:00 +27°C° 0.6 mm 3 mps 743 mmHg 91%
    01:00 +27°C° 0.6 mm 3 mps 742 mmHg 91%
    02:00 +27°C° 0.6 mm 4 mps 742 mmHg 91%
    03:00 +27°C° 0.6 mm 4 mps 742 mmHg 91%
    04:00 +27°C° 0.6 mm 4 mps 742 mmHg 91%
    05:00 +27°C° 0.6 mm 4 mps 742 mmHg 91%
    06:00 +27°C° 0.5 mm 4 mps 743 mmHg 89%
    07:00 +28°C° 0.5 mm 4 mps 744 mmHg 86%
    08:00 +28°C° 0.5 mm 5 mps 744 mmHg 84%
    09:00 +29°C° 0.5 mm 5 mps 744 mmHg 81%
    10:00 +30°C° 0.5 mm 5 mps 744 mmHg 78%
    11:00 +32°C° 0.5 mm 5 mps 744 mmHg 75%
    12:00 +32°C° 0.5 mm 5 mps 743 mmHg 75%
    13:00 +32°C° 0.5 mm 5 mps 742 mmHg 75%
    14:00 +32°C° 0.5 mm 5 mps 742 mmHg 75%
    15:00 +30°C° 0.4 mm 5 mps 742 mmHg 77%
    16:00 +29°C° 0.4 mm 5 mps 742 mmHg 79%
    17:00 +29°C° 0.4 mm 4 mps 742 mmHg 82%
    18:00 +28°C° 0.2 mm 4 mps 742 mmHg 83%
    19:00 +28°C° 0.2 mm 4 mps 743 mmHg 85%
    20:00 +27°C° 0.2 mm 4 mps 744 mmHg 87%
    21:00 +27°C° 0.2 mm 4 mps 744 mmHg 87%
    22:00 +27°C° 0.2 mm 4 mps 744 mmHg 87%
    23:00 +27°C° 0.2 mm 4 mps 744 mmHg 88%
    Show more